DG8SF-13 Weather Reports


Display with metric or nautical units.
time (UTC)temp
F
wind
direction
speed
MPH
gust
MPH
rain 1hr
in
rain 24hr
in
rain mn
in
humidity
%
barometer
mb
20260506062352 58 270 1.0 2.0 0.00 0.02 0.00 76 1006.2
20260506061842 59 270 0.0 4.0 0.00 0.02 0.00 76 1006.1
20260506061328 57 0 0.0 0.0 0.00 0.02 0.00 80 1006.2
20260506060819 57 0 0.0 0.0 0.00 0.02 0.00 78 1006.2
20260506060305 59 0 0.0 0.0 0.00 0.02 0.00 76 1006.3
20260506051117 49 0 0.0 0.0 0.00 0.02 0.00 98 1006.5
20260506050606 48 0 0.0 0.0 0.00 0.02 0.00 98 1006.5
20260506045029 47 0 0.0 0.0 0.00 0.02 0.00 98 1006.6
20260506044519 47 0 0.0 0.0 0.00 0.02 0.00 98 1006.7
20260506044004 46 0 0.0 0.0 0.00 0.02 0.00 98 1006.7
20260506043452 46 0 0.0 0.0 0.00 0.02 0.00 98 1006.7
20260506042951 47 0 0.0 0.0 0.00 0.02 0.00 98 1006.9
20260506042441 47 0 0.0 0.0 0.00 0.02 0.00 98 1007.0
20260506041928 46 0 0.0 0.0 0.00 0.02 0.00 98 1007.1
20260506041417 46 0 0.0 0.0 0.00 0.02 0.00 97 1007.0
20260506040906 46 0 0.0 0.0 0.00 0.02 0.00 97 1007.0
20260506040355 46 0 0.0 0.0 0.00 0.02 0.00 97 1007.0
20260506035839 47 0 0.0 0.0 0.00 0.02 0.00 97 1007.1
20260506035343 46 0 0.0 0.0 0.00 0.02 0.00 97 1007.1
20260506034828 46 0 0.0 0.0 0.00 0.02 0.00 97 1007.2
20260506034319 46 0 0.0 0.0 0.00 0.02 0.00 97 1007.2
20260506033804 46 0 0.0 0.0 0.00 0.02 0.00 97 1007.3
20260506033306 46 0 0.0 0.0 0.00 0.02 0.00 97 1007.3
20260506032751 46 0 0.0 0.0 0.00 0.02 0.00 97 1007.2
20260506032254 46 0 0.0 0.0 0.00 0.02 0.00 97 1007.4
20260506031740 47 0 0.0 0.0 0.00 0.02 0.00 97 1007.3
20260506031229 47 0 0.0 0.0 0.00 0.02 0.00 97 1007.3
20260506030717 46 0 0.0 0.0 0.00 0.02 0.00 96 1007.3
20260506030217 46 0 0.0 0.0 0.00 0.02 0.00 96 1007.3
20260506025703 46 0 0.0 0.0 0.00 0.02 0.00 96 1007.5
20260506025207 46 0 0.0 0.0 0.00 0.02 0.00 96 1007.4
20260506024653 47 0 0.0 0.0 0.00 0.02 0.00 96 1007.4
20260506024142 47 0 0.0 0.0 0.00 0.02 0.00 96 1007.4
20260506023628 47 0 0.0 0.0 0.00 0.02 0.00 96 1007.5
20260506023118 47 270 0.0 2.0 0.00 0.02 0.00 96 1007.5
20260506022605 47 0 0.0 0.0 0.00 0.02 0.00 95 1007.4
20260506022101 47 0 0.0 0.0 0.00 0.02 0.00 95 1007.5
20260506021541 47 0 0.0 0.0 0.00 0.02 0.00 95 1007.4
20260506021029 47 0 0.0 0.0 0.00 0.02 0.00 94 1007.4
20260506020516 48 0 0.0 0.0 0.00 0.02 0.00 94 1007.4
20260506020020 48 270 0.0 0.0 0.00 0.02 0.00 94 1007.3
20260506015504 49 270 1.0 2.0 0.00 0.02 0.00 95 1007.3
20260506014953 49 270 1.0 4.0 0.00 0.02 0.00 94 1007.4
20260506014441 49 270 1.0 2.0 0.00 0.02 0.00 94 1007.5
20260506013929 49 270 1.0 2.0 0.00 0.02 0.00 94 1007.6
20260506013416 49 270 2.0 4.0 0.00 0.02 0.00 94 1007.7
20260506012906 49 270 2.0 4.0 0.00 0.02 0.00 94 1007.8
20260506012352 49 270 2.0 4.0 0.00 0.02 0.00 94 1007.9
20260506011840 49 225 2.0 4.0 0.00 0.02 0.00 94 1007.9
20260506011329 49 225 2.0 4.0 0.00 0.02 0.00 94 1007.8
20260506010816 49 225 2.0 4.0 0.00 0.02 0.00 95 1007.9
20260506010306 48 225 2.0 2.0 0.00 0.02 0.00 95 1007.8
20260506005801 48 225 1.0 2.0 0.00 0.02 0.00 95 1007.8
20260506005242 48 225 0.0 0.0 0.00 0.02 0.00 95 1007.7
20260506004731 48 225 0.0 2.0 0.00 0.02 0.00 95 1007.5
20260506004216 48 225 0.0 0.0 0.00 0.02 0.00 95 1007.7
20260506003706 48 225 1.0 2.0 0.00 0.02 0.00 94 1007.7
20260506003152 48 225 1.0 2.0 0.00 0.02 0.00 95 1007.7
20260506002641 48 225 0.0 2.0 0.00 0.02 0.00 95 1007.9
20260506002128 48 0 0.0 0.0 0.00 0.02 0.00 94 1008.0
20260506001618 48 225 1.0 2.0 0.00 0.02 0.00 94 1008.0
20260506001103 48 225 1.0 2.0 0.00 0.02 0.00 95 1007.9
20260506000553 48 225 1.0 2.0 0.00 0.02 0.00 94 1008.1
20260506000041 48 225 0.0 2.0 0.00 0.02 0.00 94 1008.1
20260505235529 48 0 0.0 0.0 0.00 0.02 0.00 94 1008.1
20260505235016 48 225 0.0 2.0 0.00 0.02 0.00 94 1008.2
20260505234505 48 0 0.0 0.0 0.00 0.02 0.00 94 1008.1
20260505233953 48 0 0.0 0.0 0.00 0.02 0.00 94 1008.3
20260505233443 48 225 0.0 0.0 0.00 0.02 0.00 93 1008.3
20260505232928 48 225 0.0 2.0 0.00 0.02 0.00 94 1008.4
20260505232417 48 0 0.0 0.0 0.00 0.02 0.00 92 1008.4
20260505231905 48 0 0.0 0.0 0.00 0.02 0.00 92 1008.4
20260505231355 49 0 0.0 0.0 0.00 0.02 0.00 91 1008.3
20260505230840 49 0 0.0 0.0 0.00 0.02 0.00 91 1008.4
20260505230328 49 0 0.0 0.0 0.00 0.02 0.00 91 1008.5
20260505225817 50 225 0.0 0.0 0.00 0.02 0.00 90 1008.5
20260505225306 50 225 1.0 2.0 0.00 0.02 0.00 90 1008.5
20260505224753 51 225 0.0 4.0 0.00 0.02 0.00 90 1008.5
20260505224243 51 225 0.0 0.0 0.00 0.02 0.00 88 1008.4
20260505223728 51 225 1.0 2.0 0.00 0.02 0.00 87 1008.3
20260505223219 52 225 1.0 7.0 0.00 0.02 0.00 87 1008.3
20260505222704 52 225 2.0 4.0 0.00 0.02 0.00 87 1008.3
20260505222159 52 225 2.0 4.0 0.00 0.02 0.00 87 1008.3
20260505221641 52 225 1.0 4.0 0.00 0.02 0.00 86 1008.3
20260505221130 52 225 2.0 4.0 0.00 0.02 0.00 86 1008.2
20260505220615 52 202 2.0 4.0 0.00 0.02 0.00 85 1008.3
20260505220106 53 270 2.0 7.0 0.00 0.02 0.00 85 1008.3
20260505215552 53 292 2.0 7.0 0.00 0.02 0.02 85 1008.3
20260505215044 53 292 2.0 9.0 0.00 0.02 0.02 84 1008.2
20260505214528 53 248 3.0 9.0 0.00 0.02 0.02 84 1008.2
20260505214019 54 68 3.0 7.0 0.00 0.02 0.02 83 1008.2
20260505213506 54 202 2.0 4.0 0.00 0.02 0.02 83 1008.2
20260505212954 54 292 3.0 7.0 0.00 0.02 0.02 83 1008.1
20260505212440 54 225 3.0 7.0 0.00 0.02 0.02 83 1008.1
20260505211933 54 270 2.0 7.0 0.00 0.02 0.02 82 1008.1
20260505211418 54 292 2.0 7.0 0.00 0.02 0.02 82 1008.1
20260505210913 54 248 2.0 4.0 0.00 0.02 0.02 81 1008.0
20260505210406 54 270 2.0 7.0 0.00 0.02 0.02 81 1008.1
20260505205854 54 248 2.0 7.0 0.00 0.02 0.02 81 1008.2
20260505205342 55 225 3.0 7.0 0.00 0.02 0.02 80 1008.0
20260505204830 55 248 2.0 9.0 0.00 0.03 0.02 80 1007.9
20260505204317 55 248 2.0 4.0 0.00 0.03 0.02 81 1008.1
20260505203806 55 270 2.0 4.0 0.00 0.03 0.02 81 1008.1
20260505203253 55 270 2.0 9.0 0.00 0.03 0.02 81 1008.2
20260505202744 55 225 2.0 7.0 0.00 0.03 0.02 81 1008.1
20260505202228 56 202 2.0 4.0 0.00 0.03 0.02 80 1008.0
20260505201717 56 225 2.0 4.0 0.00 0.03 0.02 80 1008.0
20260505201206 56 225 2.0 7.0 0.00 0.05 0.02 80 1008.0
20260505200653 56 225 2.0 9.0 0.00 0.08 0.02 80 1008.0
20260505200145 56 225 2.0 7.0 0.00 0.09 0.02 80 1008.0
20260505195629 56 202 1.0 7.0 0.00 0.09 0.02 80 1008.0
20260505195117 56 225 1.0 4.0 0.00 0.09 0.02 81 1008.0
20260505194605 56 225 0.0 2.0 0.00 0.09 0.02 81 1008.0
20260505194055 56 225 0.0 2.0 0.00 0.09 0.02 80 1007.8
20260505193547 57 225 0.0 0.0 0.00 0.09 0.02 78 1007.8
20260505193030 57 225 0.0 2.0 0.00 0.09 0.02 77 1007.6
20260505192517 58 225 0.0 2.0 0.00 0.09 0.02 74 1007.4
20260505192007 58 225 1.0 2.0 0.00 0.09 0.02 73 1007.3
20260505191453 58 225 0.0 2.0 0.00 0.09 0.02 73 1007.2
20260505190940 58 225 0.0 2.0 0.00 0.09 0.02 73 1007.0
20260505190430 58 225 1.0 2.0 0.00 0.09 0.02 73 1007.1
20260505185920 59 225 1.0 2.0 0.00 0.09 0.02 72 1007.1
20260505185406 59 225 1.0 2.0 0.00 0.09 0.02 71 1007.1
20260505184901 59 225 1.0 2.0 0.00 0.09 0.02 69 1007.0
20260505184342 59 225 1.0 4.0 0.00 0.09 0.02 69 1007.0
20260505183830 59 225 1.0 2.0 0.00 0.09 0.02 69 1007.0
20260505183317 59 0 0.0 0.0 0.00 0.09 0.02 74 1006.8
20260505182806 59 0 0.0 0.0 0.00 0.09 0.02 73 1006.8
20260505182253 59 0 0.0 0.0 0.00 0.09 0.02 69 1006.7
20260505181744 59 0 0.0 0.0 0.00 0.09 0.02 68 1006.6
20260505181229 60 0 0.0 0.0 0.00 0.09 0.02 71 1006.6
20260505180719 60 112 0.0 2.0 0.00 0.09 0.02 70 1006.5
20260505180206 60 112 1.0 2.0 0.00 0.09 0.02 69 1006.4
20260505175654 60 112 1.0 2.0 0.00 0.09 0.02 67 1006.5
20260505175140 61 0 0.0 0.0 0.00 0.09 0.02 68 1006.5
20260505174631 61 0 0.0 0.0 0.00 0.09 0.02 70 1006.4
20260505174117 61 112 0.0 2.0 0.00 0.09 0.02 69 1006.4
20260505173607 62 112 1.0 2.0 0.00 0.09 0.02 69 1006.3
20260505173053 62 112 1.0 4.0 0.00 0.09 0.02 68 1006.4
20260505172542 62 248 1.0 2.0 0.00 0.09 0.02 66 1006.4
20260505172029 63 248 1.0 2.0 0.00 0.09 0.02 65 1006.4
20260505171519 64 248 1.0 4.0 0.00 0.09 0.02 62 1006.3
20260505171006 66 225 1.0 2.0 0.00 0.09 0.02 60 1006.2
20260505170458 67 225 0.0 2.0 0.00 0.09 0.02 55 1006.0
20260505165941 67 225 0.0 2.0 0.00 0.09 0.02 57 1006.1
20260505165430 68 0 0.0 0.0 0.00 0.09 0.02 57 1006.1
20260505164918 69 0 0.0 0.0 0.00 0.09 0.02 55 1006.1
20260505164405 66 0 0.0 0.0 0.00 0.09 0.02 58 1006.2
20260505163854 67 0 0.0 0.0 0.00 0.09 0.02 59 1006.2
20260505163343 65 0 0.0 0.0 0.00 0.09 0.02 63 1006.3
20260505162829 65 0 0.0 0.0 0.00 0.09 0.02 64 1006.4
20260505162317 64 0 0.0 0.0 0.00 0.09 0.02 63 1006.4
20260505161806 65 0 0.0 0.0 0.00 0.09 0.02 64 1006.3
20260505161253 64 0 0.0 0.0 0.00 0.09 0.02 66 1006.4
20260505160743 64 0 0.0 0.0 0.00 0.09 0.02 65 1006.4
20260505160229 64 0 0.0 0.0 0.00 0.09 0.02 64 1006.4
20260505153117 62 225 1.0 2.0 0.00 0.09 0.02 67 1006.3
20260505152606 62 225 1.0 2.0 0.00 0.09 0.02 68 1006.5
20260505152054 62 225 0.0 2.0 0.00 0.09 0.02 70 1006.6
20260505151542 62 225 1.0 2.0 0.00 0.09 0.02 68 1006.5
20260505151028 62 225 1.0 2.0 0.00 0.09 0.02 71 1006.6
20260505150530 61 225 1.0 4.0 0.00 0.09 0.02 71 1006.5
20260505140254 62 225 2.0 4.0 0.00 0.09 0.02 71 1006.5
20260505125008 60 225 2.0 4.0 0.02 0.09 0.02 82 1007.5
20260505124454 61 225 2.0 4.0 0.02 0.09 0.02 81 1007.5
20260505123943 61 225 2.0 4.0 0.00 0.08 0.00 77 1007.4
20260505123429 62 225 2.0 7.0 0.00 0.08 0.00 73 1007.5
20260505122919 63 225 2.0 4.0 0.00 0.08 0.00 71 1007.5
20260505122407 64 225 2.0 4.0 0.00 0.08 0.00 64 1007.3
20260505121854 64 248 2.0 4.0 0.00 0.08 0.00 63 1007.4
20260505121341 64 248 2.0 4.0 0.00 0.08 0.00 64 1007.3
20260505120832 65 248 2.0 7.0 0.00 0.08 0.00 62 1007.2
20260505120315 66 112 2.0 4.0 0.00 0.08 0.00 61 1007.1
20260505115806 66 225 2.0 7.0 0.00 0.08 0.00 63 1007.1
20260505115254 66 225 2.0 9.0 0.00 0.08 0.00 63 1007.0
20260505114743 66 225 2.0 4.0 0.00 0.08 0.00 64 1007.0
20260505114229 66 225 1.0 4.0 0.00 0.08 0.00 64 1006.9
20260505113719 66 202 1.0 2.0 0.00 0.08 0.00 61 1006.9
20260505113205 65 202 2.0 7.0 0.00 0.08 0.00 61 1006.9
20260505112656 66 202 2.0 2.0 0.00 0.08 0.00 63 1006.9
20260505112142 66 202 2.0 4.0 0.00 0.08 0.00 61 1006.8
20260505111630 67 202 1.0 2.0 0.00 0.08 0.00 59 1006.7
20260505111117 67 202 1.0 2.0 0.00 0.08 0.00 59 1006.9
20260505110609 67 202 1.0 2.0 0.00 0.08 0.00 61 1006.8
20260505101918 71 158 1.0 2.0 0.00 0.08 0.00 51 1007.0
20260505101406 69 158 1.0 2.0 0.00 0.08 0.00 53 1007.1
20260505100853 68 135 1.0 2.0 0.00 0.08 0.00 54 1007.2
20260505100343 68 135 1.0 2.0 0.00 0.08 0.00 54 1007.2
20260505095830 67 135 1.0 2.0 0.00 0.08 0.00 58 1007.3
20260505095319 66 135 2.0 2.0 0.00 0.08 0.00 58 1007.2
20260505094805 67 135 2.0 2.0 0.00 0.08 0.00 59 1007.4
20260505094254 67 135 1.0 2.0 0.00 0.08 0.00 61 1007.4
20260505093744 67 135 1.0 2.0 0.00 0.08 0.00 59 1007.5
20260505093231 67 135 1.0 2.0 0.00 0.08 0.00 60 1007.5
20260505092717 66 135 1.0 2.0 0.00 0.08 0.00 62 1007.5
20260505092205 65 135 2.0 2.0 0.00 0.08 0.00 63 1007.6
20260505091654 65 135 2.0 4.0 0.00 0.08 0.00 63 1007.7
20260505091143 66 135 1.0 2.0 0.00 0.08 0.00 61 1007.6
20260505090631 66 135 1.0 4.0 0.00 0.08 0.00 60 1007.7
20260505090117 66 158 1.0 2.0 0.00 0.08 0.00 63 1007.6
20260505085608 65 135 1.0 2.0 0.00 0.08 0.00 63 1007.7
20260505085053 65 135 0.0 2.0 0.00 0.08 0.00 61 1007.7
20260505084545 65 135 0.0 2.0 0.00 0.08 0.00 60 1007.8
20260505084029 66 135 1.0 2.0 0.00 0.08 0.00 58 1007.8
20260505083518 65 135 1.0 4.0 0.00 0.08 0.00 60 1007.8
20260505083005 68 135 1.0 2.0 0.00 0.08 0.00 56 1007.8
20260505082456 67 135 2.0 4.0 0.00 0.08 0.00 59 1007.8
20260505081947 67 112 1.0 4.0 0.00 0.08 0.00 57 1007.8
20260505081429 68 135 1.0 2.0 0.00 0.08 0.00 56 1007.8
20260505080917 66 135 1.0 4.0 0.00 0.08 0.00 60 1007.8
20260505080407 68 180 0.0 2.0 0.00 0.08 0.00 58 1007.8
20260505075853 66 180 0.0 2.0 0.00 0.08 0.00 61 1007.8
20260505075342 65 180 0.0 2.0 0.00 0.08 0.00 63 1008.0
20260505074829 64 180 0.0 2.0 0.00 0.08 0.00 66 1008.0
20260505074319 62 180 0.0 2.0 0.00 0.08 0.00 69 1008.1
20260505073808 62 180 0.0 0.0 0.00 0.08 0.00 66 1008.2
20260505073252 62 180 1.0 4.0 0.00 0.08 0.00 68 1008.3
20260505072741 62 180 0.0 0.0 0.00 0.08 0.00 68 1008.2
20260505072239 63 180 0.0 2.0 0.00 0.08 0.00 66 1008.3
20260505071716 64 0 0.0 0.0 0.00 0.08 0.00 66 1008.2
20260505071204 64 180 0.0 0.0 0.00 0.08 0.00 66 1008.3
20260505070654 63 180 1.0 2.0 0.00 0.08 0.00 68 1008.3
20260505070143 62 180 1.0 2.0 0.00 0.08 0.00 71 1008.4
20260505065631 60 180 1.0 2.0 0.00 0.08 0.00 74 1008.4